FW3335 Weather Reports


time (UTC)temp
F
wind
direction
speed
knots
gust
knots
rain 1hr
in
rain 24hr
in
rain mn
in
humidity
%
barometer
mb
20260505021539 37 253 3.5 9.6 0.05 0.06 0.06 79 1013.9
20260505020032 39 297 4.3 11.3 0.02 0.03 0.03 73 1013.3
20260505014537 42 360 2.6 7.8 0.00 0.01 0.01 67 1013.1
20260505013031 42 57 0.0 1.7 0.00 0.01 0.01 65 1012.6
20260505011533 43 57 0.0 0.0 0.00 0.01 0.01 62 1012.2
20260505010029 43 57 0.0 0.0 0.00 0.01 0.01 62 1012.1
20260505004530 43 57 0.0 0.0 0.00 0.01 0.01 63 1012.1
20260505003028 43 57 0.0 0.9 0.00 0.01 0.01 62 1012.1
20260505001534 43 57 0.0 1.7 0.00 0.01 0.01 65 1012.1
20260505000034 42 56 0.0 3.5 0.00 0.01 0.01 69 1012.3
20260504234526 41 71 0.0 2.6 0.01 0.01 0.01 74 1012.7
20260504233028 40 111 0.0 3.5 0.01 0.01 0.01 72 1013.0
20260504231530 40 182 0.0 3.5 0.01 0.01 0.01 74 1013.2
20260504230025 41 138 0.0 3.5 0.01 0.01 0.01 72 1013.1
20260504224527 42 215 2.6 9.6 0.00 0.00 0.00 65 1013.4
20260504223023 47 237 8.7 14.8 0.00 0.00 0.00 44 1012.6
20260504221522 49 277 1.7 8.7 0.00 0.00 0.00 38 1012.1
20260504220023 49 292 0.9 6.1 0.00 0.00 0.00 40 1012.0
20260504214521 48 244 0.0 2.6 0.00 0.00 0.00 41 1012.1
20260504213020 48 238 0.0 7.0 0.00 0.00 0.00 45 1012.2
20260504211518 48 263 1.7 6.1 0.00 0.00 0.00 46 1012.8
20260504210018 49 236 4.3 10.4 0.00 0.00 0.00 41 1012.9
20260504204518 49 279 1.7 5.2 0.00 0.00 0.00 38 1012.9
20260504203022 49 214 2.6 8.7 0.00 0.00 0.00 38 1013.0
20260504201518 49 223 2.6 8.7 0.00 0.00 0.00 34 1012.9
20260504200016 49 225 6.1 11.3 0.00 0.00 0.00 30 1012.7
20260504194528 51 311 1.7 9.6 0.00 0.00 0.00 30 1012.7
20260504193017 51 360 0.0 3.5 0.00 0.00 0.00 30 1012.5
20260504191513 51 360 0.0 2.6 0.00 0.00 0.00 28 1012.6
20260504190010 50 310 0.9 5.2 0.00 0.00 0.00 31 1012.9
20260504184511 49 292 1.7 7.0 0.00 0.00 0.00 38 1013.2
20260504183006 47 38 0.0 5.2 0.00 0.00 0.00 38 1013.5
20260504181504 45 175 3.5 10.4 0.00 0.00 0.00 49 1014.1
20260504180012 45 190 6.1 14.8 0.00 0.00 0.00 49 1014.2
20260504174504 47 257 6.1 15.6 0.00 0.00 0.00 46 1014.4
20260504173010 48 207 4.3 13.9 0.00 0.00 0.00 44 1014.0
20260504171502 48 196 5.2 10.4 0.00 0.00 0.00 42 1013.8
20260504081550 26 22 0.0 0.0 0.00 0.00 0.00 69 1016.4
20260504044525 35 22 0.0 0.9 0.00 0.00 0.00 54 1017.4
20260504043025 36 22 0.0 0.0 0.00 0.00 0.00 51 1017.8
20260504041525 37 22 0.0 0.0 0.00 0.00 0.00 50 1017.8
20260504040029 38 22 0.0 0.0 0.00 0.00 0.00 48 1017.8
20260504034537 39 22 0.0 0.9 0.00 0.00 0.00 46 1017.7
20260504033028 40 20 0.0 0.0 0.00 0.00 0.00 44 1017.7
20260504031522 41 20 0.0 0.0 0.00 0.00 0.00 41 1017.5
20260504030034 42 338 0.0 0.0 0.00 0.00 0.00 40 1017.4
20260504024522 44 338 0.0 0.0 0.00 0.00 0.00 38 1017.1